Change the Weather History Date:

Monday, January 13, 2014

  Actual Average Record
Temperature  
Mean Temperature 32 °F -  
Max Temperature 37 °F 24 °F 53 °F (2002)
Min Temperature 28 °F 4 °F -24 °F (1974)
Degree Days  
Heating Degree Days 32    
Moisture  
Dew Point 27 °F    
Average Humidity 80    
Maximum Humidity 100    
Minimum Humidity 60    
Precipitation  
Precipitation 0.00 in - - ()
Sea Level Pressure  
Sea Level Pressure 29.66 in    
Wind  
Wind Speed 11 mph (WSW)    
Max Wind Speed 23 mph    
Max Gust Speed 30 mph    
Visibility 10 miles    
Events      
Averages and records for this station are not official NWS values.
T = Trace of Precipitation, MM = Missing Value Source: NWS Daily Summary

Daily Weather History Graph

Daily Weather History Graph

Search for Another Location

Airport or City:

Trip Planner

Search our weather history database for the weather conditions in past years. The results will help you decide how hot, cold, wet, or windy it might be!

Date:

Astronomy

Jan. 13, 2014 Rise Set
Actual Time 7:43 AM CST 5:04 PM CST
Civil Twilight 7:12 AM CST 5:35 PM CST
Nautical Twilight 6:37 AM CST 6:10 PM CST
Astronomical Twilight 6:03 AM CST 6:44 PM CST
Moon 3:20 PM CST (1/13) 5:32 AM CST (1/13)
Length of Visible Light 10h 23m
Length of Day
9h 20m
Waxing Gibbous, 95% of the Moon is Illuminated
Jan 13
Waxing Gibbous
Jan 15
Full
Jan 23
Last Quarter
Jan 30
New
Feb 6
First Quarter

Hourly Weather History & Observations

Time (CST) Temp. Windchill Dew Point Humidity Pressure Visibility Wind Dir Wind Speed Gust Speed Precip Events Conditions
12:15 AM 33.8 °F 27.7 °F 32.0 °F 93% 29.58 in 10.0 mi WSW 6.9 mph - N/A   Overcast
12:35 AM 33.8 °F 28.6 °F 32.0 °F 93% 29.57 in 10.0 mi SW 5.8 mph - N/A   Overcast
12:55 AM 33.8 °F 29.6 °F 32.0 °F 93% 29.56 in 10.0 mi SW 4.6 mph - N/A   Overcast
1:15 AM 33.8 °F 27.0 °F 32.0 °F 93% 29.56 in 10.0 mi SSW 8.1 mph - N/A   Overcast
1:35 AM 33.8 °F 26.4 °F 32.0 °F 93% 29.56 in 10.0 mi SSW 9.2 mph - N/A   Scattered Clouds
1:55 AM 33.8 °F 27.7 °F 32.0 °F 93% 29.58 in 10.0 mi SW 6.9 mph - N/A   Overcast
2:15 AM 33.8 °F 27.7 °F 32.0 °F 93% 29.58 in 10.0 mi SW 6.9 mph - N/A   Overcast
2:35 AM 33.8 °F 27.7 °F 32.0 °F 93% 29.58 in 10.0 mi SW 6.9 mph - N/A   Mostly Cloudy
2:55 AM 33.8 °F 27.0 °F 32.0 °F 93% 29.58 in 10.0 mi WSW 8.1 mph - N/A   Scattered Clouds
3:15 AM 32.0 °F 26.4 °F 32.0 °F 100% 29.58 in 10.0 mi West 5.8 mph - N/A   Mostly Cloudy
3:35 AM 32.0 °F 24.8 °F 32.0 °F 100% 29.59 in 10.0 mi West 8.1 mph - N/A   Overcast
3:55 AM 33.8 °F 27.0 °F 32.0 °F 93% 29.59 in 10.0 mi WNW 8.1 mph - N/A   Overcast
4:15 AM 33.8 °F 26.4 °F 32.0 °F 93% 29.59 in 10.0 mi WNW 9.2 mph - N/A   Overcast
4:35 AM 33.8 °F 24.8 °F 30.2 °F 87% 29.60 in 10.0 mi WNW 12.7 mph - N/A   Scattered Clouds
4:55 AM 33.8 °F 25.3 °F 30.2 °F 87% 29.61 in 10.0 mi WNW 11.5 mph - N/A   Clear
5:15 AM 32.0 °F 22.1 °F 30.2 °F 93% 29.63 in 10.0 mi NW 13.8 mph - N/A   Clear
5:35 AM 33.8 °F 22.5 °F 30.2 °F 87% 29.64 in 10.0 mi NW 19.6 mph - N/A   Partly Cloudy
5:55 AM 32.0 °F 19.5 °F 30.2 °F 93% 29.65 in 10.0 mi NW 21.9 mph - N/A   Overcast
6:15 AM 32.0 °F 19.8 °F 30.2 °F 93% 29.65 in 10.0 mi NNW 20.7 mph 29.9 mph N/A   Overcast
6:35 AM 32.0 °F 19.8 °F 30.2 °F 93% 29.67 in 10.0 mi NNW 20.7 mph 27.6 mph N/A   Overcast
6:55 AM 32.0 °F 19.2 °F 30.2 °F 93% 29.67 in 10.0 mi NW 23.0 mph 29.9 mph N/A   Overcast
7:15 AM 32.0 °F 19.5 °F 28.4 °F 87% 29.68 in 10.0 mi NNW 21.9 mph 28.8 mph N/A   Overcast
7:35 AM 30.2 °F 19.8 °F 24.8 °F 80% 29.69 in 10.0 mi NNW 13.8 mph 25.3 mph N/A   Mostly Cloudy
7:55 AM 28.4 °F 17.5 °F 24.8 °F 86% 29.69 in 10.0 mi NW 13.8 mph - N/A   Partly Cloudy
8:15 AM 28.4 °F 17.0 °F 23.0 °F 80% 29.70 in 10.0 mi NW 15.0 mph - N/A   Clear
8:35 AM 28.4 °F 18.5 °F 24.8 °F 86% 29.71 in 10.0 mi NW 11.5 mph - N/A   Clear
8:55 AM 30.2 °F 18.9 °F 24.8 °F 80% 29.72 in 10.0 mi NW 16.1 mph 21.9 mph N/A   Clear
9:15 AM 30.2 °F 18.5 °F 24.8 °F 80% 29.73 in 10.0 mi NW 17.3 mph - N/A   Clear
9:35 AM 32.0 °F 19.8 °F 24.8 °F 75% 29.74 in 10.0 mi NW 20.7 mph - N/A   Clear
9:55 AM 32.0 °F 19.5 °F 23.0 °F 69% 29.74 in 10.0 mi NNW 21.9 mph - N/A   Clear
10:15 AM 32.0 °F 20.1 °F 23.0 °F 69% 29.75 in 10.0 mi NW 19.6 mph - N/A   Clear
10:35 AM 32.0 °F 19.2 °F 23.0 °F 69% 29.75 in 10.0 mi NW 23.0 mph - N/A   Clear
10:55 AM 32.0 °F 20.8 °F 24.8 °F 75% 29.75 in 10.0 mi NW 17.3 mph 24.2 mph N/A   Clear
11:15 AM 32.0 °F 21.2 °F 24.8 °F 75% 29.74 in 10.0 mi NW 16.1 mph - N/A   Clear
11:35 AM 32.0 °F 21.2 °F 24.8 °F 75% 29.74 in 10.0 mi NW 16.1 mph - N/A   Clear
11:55 AM 32.0 °F 22.5 °F 24.8 °F 75% 29.73 in 10.0 mi WNW 12.7 mph 18.4 mph N/A   Clear
12:15 PM 33.8 °F 24.3 °F 23.0 °F 65% 29.72 in 10.0 mi WNW 13.8 mph 19.6 mph N/A   Clear
12:35 PM 33.8 °F 25.8 °F 24.8 °F 70% 29.72 in 10.0 mi NW 10.4 mph 18.4 mph N/A   Clear
12:55 PM 33.8 °F 24.3 °F 24.8 °F 70% 29.72 in 10.0 mi WNW 13.8 mph - N/A   Clear
1:15 PM 33.8 °F 23.9 °F 24.8 °F 70% 29.71 in 10.0 mi WNW 15.0 mph - N/A   Clear
1:35 PM 35.6 °F 27.1 °F 24.8 °F 65% 29.72 in 10.0 mi WNW 12.7 mph - N/A   Clear
1:55 PM 35.6 °F 27.1 °F 24.8 °F 65% 29.72 in 10.0 mi WNW 12.7 mph - N/A   Clear
2:15 PM 35.6 °F 26.2 °F 24.8 °F 65% 29.72 in 10.0 mi West 15.0 mph - N/A   Clear
2:35 PM 37.4 °F 28.9 °F 24.8 °F 60% 29.71 in 10.0 mi WNW 13.8 mph - N/A   Clear
2:55 PM 37.4 °F 28.2 °F 24.8 °F 60% 29.71 in 10.0 mi West 16.1 mph - N/A   Clear
3:15 PM 37.4 °F 30.3 °F 26.6 °F 65% 29.72 in 10.0 mi West 10.4 mph 18.4 mph N/A   Clear
3:35 PM 37.4 °F 30.3 °F 24.8 °F 60% 29.72 in 10.0 mi West 10.4 mph - N/A   Clear
3:55 PM 37.4 °F 29.8 °F 24.8 °F 60% 29.72 in 10.0 mi WSW 11.5 mph - N/A   Clear
4:15 PM 37.4 °F 30.8 °F 26.6 °F 65% 29.72 in 10.0 mi WSW 9.2 mph - N/A   Clear
4:35 PM 35.6 °F 29.9 °F 26.6 °F 70% 29.72 in 10.0 mi SW 6.9 mph - N/A   Clear
4:55 PM 33.8 °F 27.0 °F 26.6 °F 75% 29.71 in 10.0 mi SSW 8.1 mph - N/A   Clear
5:15 PM 32.0 °F 24.8 °F 26.6 °F 80% 29.71 in 10.0 mi SSW 8.1 mph - N/A   Partly Cloudy
5:35 PM 32.0 °F 24.8 °F 26.6 °F 80% 29.70 in 10.0 mi SSW 8.1 mph - N/A   Scattered Clouds
5:55 PM 33.8 °F 25.8 °F 26.6 °F 75% 29.69 in 10.0 mi SSW 10.4 mph - N/A   Overcast
6:15 PM 32.0 °F 23.6 °F 26.6 °F 80% 29.69 in 10.0 mi SSW 10.4 mph - N/A   Overcast
6:35 PM 33.8 °F 26.4 °F 26.6 °F 75% 29.69 in 10.0 mi SSW 9.2 mph - N/A   Overcast
6:55 PM 33.8 °F 27.0 °F 26.6 °F 75% 29.69 in 10.0 mi SSW 8.1 mph - N/A   Overcast
7:15 PM 33.8 °F 26.4 °F 26.6 °F 75% 29.68 in 10.0 mi SSW 9.2 mph - N/A   Overcast
7:35 PM 33.8 °F 26.4 °F 26.6 °F 75% 29.68 in 10.0 mi South 9.2 mph - N/A   Overcast
7:55 PM 32.0 °F 23.6 °F 26.6 °F 80% 29.66 in 10.0 mi South 10.4 mph - N/A   Overcast
8:15 PM 32.0 °F 23.0 °F 26.6 °F 80% 29.65 in 10.0 mi South 11.5 mph - N/A   Overcast
8:35 PM 32.0 °F 22.5 °F 26.6 °F 80% 29.64 in 10.0 mi South 12.7 mph - N/A   Overcast
8:55 PM 32.0 °F 22.5 °F 26.6 °F 80% 29.64 in 10.0 mi South 12.7 mph - N/A   Overcast
9:15 PM 32.0 °F 23.0 °F 26.6 °F 80% 29.64 in 10.0 mi South 11.5 mph - N/A   Overcast
9:35 PM 32.0 °F 22.5 °F 26.6 °F 80% 29.63 in 10.0 mi South 12.7 mph - N/A   Mostly Cloudy
9:55 PM 30.2 °F 20.2 °F 26.6 °F 86% 29.61 in 10.0 mi South 12.7 mph - N/A   Partly Cloudy
10:15 PM 30.2 °F 19.8 °F 26.6 °F 86% 29.60 in 10.0 mi South 13.8 mph - N/A   Clear
10:35 PM 30.2 °F 19.8 °F 26.6 °F 86% 29.60 in 10.0 mi South 13.8 mph - N/A   Clear
10:55 PM 30.2 °F 20.2 °F 24.8 °F 80% 29.58 in 10.0 mi South 12.7 mph - N/A   Clear
11:15 PM 30.2 °F 19.3 °F 26.6 °F 86% 29.57 in 10.0 mi South 15.0 mph - N/A   Clear
11:35 PM 30.2 °F 19.8 °F 26.6 °F 86% 29.57 in 10.0 mi South 13.8 mph - N/A   Clear
11:55 PM 30.2 °F 20.8 °F 26.6 °F 86% 29.56 in 10.0 mi South 11.5 mph 18.4 mph N/A   Clear